Tracking 29510 objects as of 16-Sep-2024
HD Live streaming from Space Station
objects crossing your sky now

THOR ABLESTAR DEB

Track THOR ABLESTAR DEB now!
10-day predictions


NORAD ID: 13514
Int'l Code: 1961-015KX
Perigee: 900.0 km
Apogee: 1,254.0 km
Inclination: 66.7 °
Period: 106.6 minutes
Semi major axis: 7448 km
RCS: 0.0184 m2 (small)
Launch date: June 29, 1961
Source: United States (US)
Launch site: AIR FORCE EASTERN TEST RANGE (AFETR)

Note: This is SATELLITE DEBRIS
Your satellite tracking list
Your tracking list is empty




NASA's NSSDC Master Catalog

Two Line Element Set (TLE):
1 13514U 61015KX  24259.80737154  .00001182  00000-0  16313-2 0  9992
2 13514  66.7158  51.1915 0237641  76.6051  39.8073 13.50644455178192
Source of the keplerian elements: AFSPC